Regional Weather Roundup
Issued by NWS Newport/Morehead, NC

Current Version | Previous Version | Graphics & Text | Print | Product List | Glossary Off
Versions: 1 2 3 4 5 6 7 8 9 10 11 12 13 14 15 16 17 18 19 20 21 22 23 24 25 26 27 28 29 30 31 32 33 34 35 36 37 38 39 40 41 42 43 44 45 46 47 48 49 50

000
ASUS42 KMHX 290525
RWRMHX
WEATHER ROUNDUP FOR EASTERN NORTH CAROLINA
NATIONAL WEATHER SERVICE NEWPORT/MOREHEAD CITY NC
100 AM EDT SAT AUG 29 2015

NOTE: "FAIR" INDICATES FEW OR NO CLOUDS BELOW 12,000 FEET
WITH NO SIGNIFICANT WEATHER AND/OR OBSTRUCTIONS TO VISIBILITY

NCZ015>017-031-032-045>047-102-103-290600-
NORTH COAST

CITY           SKY/WX    TMP DP  RH WIND       PRES   REMARKS
EDENTON        PTCLDY    66  62  89 CALM      30.19S
ELIZABETH CITY PTCLDY    66  62  87 E3        30.19S
KITTY HAWK     CLOUDY    74  64  70 NE6       30.18S
MANTEO         CLOUDY    74  65  71 E12       30.18F

$$

NCZ045>047-081-094-103-104-290600-
CENTRAL COAST

CITY           SKY/WX    TMP DP  RH WIND       PRES   REMARKS
FRISCO         MOCLDY    76  67  73 NE8G20    30.16S
SWANQUARTER    NOT AVBL

$$

NCZ095-097-098-100-101-290600-
SOUTHERN COAST

CITY           SKY/WX    TMP DP  RH WIND       PRES   REMARKS
BEAUFORT       PTCLDY    72  70  93 NE6       30.16S
CEDAR ISLAND   NOT AVBL
JACKSONVILLE   CLEAR     70  63  78 N3        30.17S
PINEY ISLAND   MOCLDY   N/A N/A N/A NE13      30.16S
WILMINGTON     CLEAR     70  66  87 N5        30.16F


$$

NCZ011>013-027>030-043-044-078>080-089-090>093-098-290600-
COASTAL PLAIN

CITY           SKY/WX    TMP DP  RH WIND       PRES   REMARKS
AHOSKIE        PTCLDY    60  57  91 CALM      30.20S
CLINTON        PTCLDY    65  64  94 CALM      30.19S
ELIZABETHTOWN  PTCLDY    67  64  88 CALM      30.18S
GOLDSBORO      CLEAR     65  62  90 CALM      30.18R
GREENVILLE     CLEAR     63  63 100 CALM      30.20S
HAVELOCK       CLEAR     73  67  81 NE8       30.18S
KENANSVILLE      N/A     63  61  94 CALM      30.19S
KINSTON        CLEAR     63  61  93 CALM      30.20S
NEW BERN       CLEAR     71  64  78 NE7       30.19S
RICHLANDS      CLEAR     64  57  77 N3        30.18S
ROCKY MOUNT    PTCLDY    63  60  90 CALM      30.20R
WASHINGTON     CLEAR     64  62  93 CALM      30.19S
WHITEVILLE     PTCLDY    68  65  89 CALM      30.17S

$$

AMZ130-135-150-152-154-156-158-170-250-252-270-ANZ085-086-088-633-658-670-290600-
MARINE OBSERVATIONS

STATION/POSITION TIME  TEMP    WIND        PRES    WAVE   SWELL
                       AIR SEA DIR/SP/G            HT/PER HT/PER
                 (UTC) (F)     (DEG/KT/KT) (MB)    (FT/S) (FT/S)
CHESAPEAKE LIGHT 0500   76      80/  9/ 10 1023.3
64 E VA BEACH    0450   77 79   50/ 10/ 14 1022.0    4/10   3/10
DUCK             NOT AVBL
2 E DUCK         0511      78                N/A     4/11   2/11
OREGON INLET     NOT AVBL
13E OREGON INLT  0500      78                N/A     4/11   2/11
HATTERAS CG      NOT AVBL
DIAMOND BUOY     0450   77 82   60/ 17/ 19 1020.7    4/11   3/11
CAPE LOOKOUT     0500   77      40/ 16/ 19 1020.7
BEAUFORT LAB     NOT AVBL
30 SE NEW RVR IN NOT AVBL
30 SE NEW RVR IN 0425      81                N/A     5/ 6   2/11
27 SE WRIGHTSVLE 0500   75 82   60/ 16/ 19   N/A
5 SE WRIGHTSVLE  0408   79 82   70/ 16/ 21 1021.0
225 S CAPE HAT   0450   82 84  180/ 10/ 12 1019.8    4/11   3/11
41 SE CHARLESTON 0450   81 84   40/ 19/ 21 1019.1    5/ 6   2/11

$$



USA.gov is the U.S. government's official web portal to all federal, state and local government web resources and services.